Location: ???????
(55.3754°N, 39.3545°E)
Time: 21:56:29
(UTC+00:00)

CZ-4 R/B - Pass Details

Date: 14 April 2026
Orbit: 490 x 537 km, 97.5° (Epoch: 13 May)

Event Time Altitude Azimuth Distance (km) Brightness Sun altitude
Rises 18:15:57 0° 206° (SSW) 2,644 4.6 -14.3°
Reaches altitude 10° 18:18:37 10° 227° (SW) 1,752 3.9 -14.6°
Maximum altitude 18:21:11 17° 270° (W) 1,348 3.9 -14.8°
Drops below altitude 10° 18:23:45 10° 313° (NW) 1,743 5.3 -15.1°
Sets 18:26:25 0° 334° (NNW) 2,625 6.2 -15.4°
